| time (UTC) | temp F | wind direction | speed knots | gust knots | rain 1hr in | rain 24hr in | rain mn in | humidity % | barometer mb |
| 20260831160509 | 73 | 283 | 1.7 | 3.5 | 0.00 | 0.00 | 0.00 | 67 | 1021.8 |
| 20260831160303 | 73 | 295 | 1.7 | 4.3 | 0.00 | 0.00 | 0.00 | 67 | 1021.2 |
| 20260831160047 | 72 | 273 | 2.6 | 4.3 | 0.00 | 0.00 | 0.00 | 100 | 1022.5 |
| 20260831160002 | 73 | 343 | 2.6 | 4.3 | 0.00 | 0.00 | 0.00 | 67 | 1021.8 |
| 20260831155725 | 72 | 341 | 2.6 | 6.1 | 0.00 | 0.00 | 0.00 | 68 | 1021.9 |
| 20260831155306 | 72 | 293 | 2.6 | 6.1 | 0.00 | 0.00 | 0.00 | 68 | 1021.3 |
| 20260831155002 | 72 | 316 | 2.6 | 6.1 | 0.00 | 0.00 | 0.00 | 67 | 1021.9 |
| 20260831154803 | 72 | 303 | 2.6 | 7.0 | 0.00 | 0.00 | 0.00 | 67 | 1021.2 |
| 20260831154608 | 72 | 333 | 2.6 | 3.5 | 0.00 | 0.00 | 0.00 | 100 | 1022.5 |
| 20260831154505 | 72 | 279 | 2.6 | 5.2 | 0.00 | 0.00 | 0.00 | 69 | 1021.9 |
| 20260831154003 | 72 | 326 | 3.5 | 5.2 | 0.00 | 0.00 | 0.00 | 68 | 1021.8 |
| 20260831153505 | 72 | 309 | 2.6 | 5.2 | 0.00 | 0.00 | 0.00 | 68 | 1021.9 |
| 20260831153303 | 72 | 316 | 2.6 | 6.1 | 0.00 | 0.00 | 0.00 | 68 | 1021.3 |
| 20260831153044 | 71 | 265 | 0.9 | 5.2 | 0.00 | 0.00 | 0.00 | 100 | 1022.6 |
| 20260831153005 | 72 | 252 | 2.6 | 7.8 | 0.00 | 0.00 | 0.00 | 67 | 1021.9 |
| 20260831152803 | 72 | 299 | 2.6 | 7.8 | 0.00 | 0.00 | 0.00 | 67 | 1021.4 |
| 20260831152504 | 72 | 331 | 3.5 | 7.8 | 0.00 | 0.00 | 0.00 | 66 | 1022.0 |
| 20260831152306 | 72 | 323 | 1.7 | 6.1 | 0.00 | 0.00 | 0.00 | 66 | 1021.4 |
| 20260831152003 | 72 | 300 | 2.6 | 7.8 | 0.00 | 0.00 | 0.00 | 66 | 1022.0 |
| 20260831151803 | 72 | 311 | 3.5 | 7.8 | 0.00 | 0.00 | 0.00 | 66 | 1021.4 |
| 20260831151549 | 72 | 328 | 3.5 | 4.3 | 0.00 | 0.00 | 0.00 | 100 | 1022.7 |
| 20260831151503 | 72 | 317 | 3.5 | 7.8 | 0.00 | 0.00 | 0.00 | 67 | 1022.1 |
| 20260831151304 | 72 | 297 | 2.6 | 7.0 | 0.00 | 0.00 | 0.00 | 67 | 1021.5 |
| 20260831151002 | 72 | 306 | 2.6 | 7.8 | 0.00 | 0.00 | 0.00 | 68 | 1022.1 |
| 20260831150803 | 72 | 292 | 2.6 | 7.8 | 0.00 | 0.00 | 0.00 | 67 | 1021.6 |
| 20260831150505 | 72 | 282 | 3.5 | 7.8 | 0.00 | 0.00 | 0.00 | 67 | 1022.2 |
| 20260831150304 | 72 | 320 | 3.5 | 8.7 | 0.00 | 0.00 | 0.00 | 66 | 1021.6 |
| 20260831150229 | 72 | 17 | 3.5 | 7.8 | 0.00 | 0.00 | 0.00 | 68 | 1022.3 |
| 20260831150043 | 71 | 338 | 2.6 | 6.1 | 0.00 | 0.00 | 0.00 | 100 | 1022.8 |
| 20260831145803 | 72 | 321 | 3.5 | 7.0 | 0.00 | 0.00 | 0.00 | 66 | 1021.7 |
| 20260831145730 | 72 | 296 | 3.5 | 8.7 | 0.00 | 0.00 | 0.00 | 66 | 1022.2 |
| 20260831145306 | 72 | 314 | 2.6 | 7.0 | 0.00 | 0.00 | 0.00 | 65 | 1021.6 |
| 20260831145003 | 72 | 258 | 3.5 | 8.7 | 0.00 | 0.00 | 0.00 | 65 | 1022.2 |
| 20260831144803 | 72 | 302 | 4.3 | 10.4 | 0.00 | 0.00 | 0.00 | 65 | 1021.6 |
| 20260831144550 | 71 | 319 | 3.5 | 7.0 | 0.00 | 0.00 | 0.00 | 100 | 1022.8 |
| 20260831144505 | 72 | 286 | 3.5 | 8.7 | 0.00 | 0.00 | 0.00 | 64 | 1022.2 |
| 20260831144303 | 72 | 316 | 4.3 | 8.7 | 0.00 | 0.00 | 0.00 | 63 | 1021.5 |
| 20260831144004 | 72 | 326 | 4.3 | 8.7 | 0.00 | 0.00 | 0.00 | 64 | 1022.2 |
| 20260831143803 | 72 | 327 | 3.5 | 7.0 | 0.00 | 0.00 | 0.00 | 64 | 1021.7 |
| 20260831143505 | 72 | 293 | 3.5 | 8.7 | 0.00 | 0.00 | 0.00 | 64 | 1022.2 |
| 20260831143304 | 72 | 305 | 3.5 | 8.7 | 0.00 | 0.00 | 0.00 | 63 | 1021.7 |
| 20260831143042 | 72 | 315 | 2.6 | 6.1 | 0.00 | 0.00 | 0.00 | 100 | 1022.9 |
| 20260831143004 | 72 | 316 | 2.6 | 7.8 | 0.00 | 0.00 | 0.00 | 63 | 1022.4 |
| 20260831142803 | 72 | 299 | 4.3 | 8.7 | 0.00 | 0.00 | 0.00 | 63 | 1021.8 |
| 20260831142505 | 73 | 316 | 4.3 | 7.8 | 0.00 | 0.00 | 0.00 | 63 | 1022.4 |
| 20260831142445 | 73 | 330 | 3.5 | 7.8 | 0.00 | 0.00 | 0.00 | 63 | 1022.4 |
| 20260831141804 | 73 | 309 | 3.5 | 7.8 | 0.00 | 0.00 | 0.00 | 63 | 1021.8 |
| 20260831141549 | 73 | 327 | 5.2 | 7.8 | 0.00 | 0.00 | 0.00 | 100 | 1023.0 |
| 20260831141505 | 73 | 252 | 4.3 | 7.8 | 0.00 | 0.00 | 0.00 | 62 | 1022.4 |
| 20260831141304 | 74 | 315 | 3.5 | 13.0 | 0.00 | 0.00 | 0.00 | 62 | 1021.8 |
| 20260831141003 | 74 | 314 | 4.3 | 6.1 | 0.00 | 0.00 | 0.00 | 62 | 1022.4 |
| 20260831140804 | 74 | 300 | 3.5 | 7.8 | 0.00 | 0.00 | 0.00 | 62 | 1021.8 |
| 20260831140729 | 74 | 292 | 3.5 | 6.1 | 0.00 | 0.00 | 0.00 | 63 | 1022.5 |
| 20260831140304 | 74 | 296 | 2.6 | 7.0 | 0.00 | 0.00 | 0.00 | 62 | 1021.8 |
| 20260831140043 | 74 | 294 | 1.7 | 4.3 | 0.00 | 0.00 | 0.00 | 100 | 1022.9 |
| 20260831140002 | 74 | 305 | 1.7 | 4.3 | 0.00 | 0.00 | 0.00 | 63 | 1022.4 |
| 20260831135504 | 74 | 51 | 1.7 | 7.8 | 0.00 | 0.00 | 0.00 | 62 | 1022.4 |
| 20260831135306 | 74 | 314 | 2.6 | 8.7 | 0.00 | 0.00 | 0.00 | 61 | 1021.8 |
| 20260831135002 | 74 | 336 | 3.5 | 7.8 | 0.00 | 0.00 | 0.00 | 61 | 1022.4 |
| 20260831134546 | 74 | 200 | 0.0 | 3.5 | 0.00 | 0.00 | 0.00 | 100 | 1022.9 |
| 20260831134505 | 74 | 350 | 1.7 | 5.2 | 0.00 | 0.00 | 0.00 | 62 | 1022.5 |
| 20260831134003 | 74 | 314 | 1.7 | 6.1 | 0.00 | 0.00 | 0.00 | 61 | 1022.5 |
| 20260831133803 | 74 | 313 | 2.6 | 7.0 | 0.00 | 0.00 | 0.00 | 62 | 1021.8 |
| 20260831133733 | 74 | 298 | 2.6 | 6.1 | 0.00 | 0.00 | 0.00 | 60 | 1022.5 |
| 20260831133304 | 74 | 328 | 2.6 | 7.0 | 0.00 | 0.00 | 0.00 | 61 | 1021.8 |
| 20260831133233 | 74 | 348 | 2.6 | 6.1 | 0.00 | 0.00 | 0.00 | 61 | 1022.5 |
| 20260831133052 | 74 | 334 | 1.7 | 4.3 | 0.00 | 0.00 | 0.00 | 100 | 1023.0 |
| 20260831132804 | 74 | 326 | 1.7 | 7.0 | 0.00 | 0.00 | 0.00 | 61 | 1021.9 |
| 20260831132504 | 74 | 341 | 2.6 | 6.1 | 0.00 | 0.00 | 0.00 | 62 | 1022.5 |
| 20260831132306 | 75 | 0 | 2.6 | 5.2 | 0.00 | 0.00 | 0.00 | 61 | 1021.9 |
| 20260831132005 | 74 | 286 | 1.7 | 5.2 | 0.00 | 0.00 | 0.00 | 62 | 1022.4 |
| 20260831131804 | 74 | 342 | 1.7 | 6.1 | 0.00 | 0.00 | 0.00 | 61 | 1021.8 |
| 20260831131552 | 74 | 51 | 2.6 | 4.3 | 0.00 | 0.00 | 0.00 | 100 | 1023.0 |
| 20260831131503 | 74 | 1 | 2.6 | 5.2 | 0.00 | 0.00 | 0.00 | 61 | 1022.4 |
| 20260831131303 | 74 | 352 | 1.7 | 7.8 | 0.00 | 0.00 | 0.00 | 62 | 1021.8 |
| 20260831131003 | 74 | 330 | 2.6 | 9.6 | 0.00 | 0.00 | 0.00 | 62 | 1022.4 |
| 20260831130804 | 74 | 37 | 2.6 | 7.8 | 0.00 | 0.00 | 0.00 | 62 | 1021.8 |
| 20260831130504 | 74 | 223 | 2.6 | 9.6 | 0.00 | 0.00 | 0.00 | 61 | 1022.5 |
| 20260831130225 | 74 | 316 | 3.5 | 6.1 | 0.00 | 0.00 | 0.00 | 60 | 1022.6 |
| 20260831130050 | 74 | 333 | 2.6 | 5.2 | 0.00 | 0.00 | 0.00 | 100 | 1023.1 |
| 20260831125504 | 74 | 341 | 2.6 | 5.2 | 0.00 | 0.00 | 0.00 | 61 | 1022.6 |
| 20260831125306 | 74 | 286 | 2.6 | 6.1 | 0.00 | 0.00 | 0.00 | 61 | 1021.9 |
| 20260831125002 | 74 | 309 | 1.7 | 5.2 | 0.00 | 0.00 | 0.00 | 61 | 1022.6 |
| 20260831124803 | 74 | 327 | 1.7 | 7.0 | 0.00 | 0.00 | 0.00 | 60 | 1022.0 |
| 20260831124550 | 73 | 247 | 1.7 | 4.3 | 0.00 | 0.00 | 0.00 | 100 | 1023.2 |
| 20260831124504 | 74 | 269 | 3.5 | 5.2 | 0.00 | 0.00 | 0.00 | 59 | 1022.6 |
| 20260831124303 | 74 | 303 | 1.7 | 5.2 | 0.00 | 0.00 | 0.00 | 60 | 1022.0 |
| 20260831124002 | 74 | 285 | 1.7 | 4.3 | 0.00 | 0.00 | 0.00 | 59 | 1022.7 |
| 20260831123506 | 74 | 254 | 2.6 | 4.3 | 0.00 | 0.00 | 0.00 | 59 | 1022.7 |
| 20260831123043 | 73 | 337 | 0.9 | 2.6 | 0.00 | 0.00 | 0.00 | 100 | 1023.4 |
| 20260831123001 | 74 | 327 | 1.7 | 3.5 | 0.00 | 0.00 | 0.00 | 60 | 1022.7 |
| 20260831122508 | 74 | 258 | 1.7 | 4.3 | 0.00 | 0.00 | 0.00 | 61 | 1022.9 |
| 20260831122305 | 74 | 19 | 1.7 | 4.3 | 0.00 | 0.00 | 0.00 | 59 | 1022.2 |
| 20260831122003 | 74 | 329 | 1.7 | 5.2 | 0.00 | 0.00 | 0.00 | 60 | 1023.0 |
| 20260831121804 | 74 | 296 | 2.6 | 7.8 | 0.00 | 0.00 | 0.00 | 60 | 1022.3 |
| 20260831121723 | 74 | 244 | 1.7 | 5.2 | 0.00 | 0.00 | 0.00 | 59 | 1022.9 |
| 20260831121545 | 73 | 284 | 2.6 | 6.1 | 0.00 | 0.00 | 0.00 | 100 | 1023.6 |
| 20260831121303 | 74 | 257 | 1.7 | 5.2 | 0.00 | 0.00 | 0.00 | 59 | 1022.3 |
| 20260831121222 | 74 | 1 | 2.6 | 5.2 | 0.00 | 0.00 | 0.00 | 59 | 1023.1 |
| 20260831120804 | 74 | 248 | 2.6 | 4.3 | 0.00 | 0.00 | 0.00 | 59 | 1022.5 |
| 20260831120505 | 74 | 223 | 1.7 | 6.1 | 0.00 | 0.00 | 0.00 | 59 | 1023.0 |
| 20260831120304 | 74 | 304 | 1.7 | 7.0 | 0.00 | 0.00 | 0.00 | 59 | 1022.4 |
| 20260831120044 | 73 | 217 | 1.7 | 3.5 | 0.00 | 0.00 | 0.00 | 100 | 1023.7 |
| 20260831120002 | 74 | 1 | 2.6 | 6.1 | 0.00 | 0.00 | 0.00 | 59 | 1023.1 |
| 20260831115804 | 74 | 15 | 0.9 | 6.1 | 0.00 | 0.00 | 0.00 | 58 | 1022.5 |
| 20260831115504 | 74 | 234 | 2.6 | 4.3 | 0.00 | 0.00 | 0.00 | 58 | 1023.1 |
| 20260831115306 | 74 | 0 | 1.7 | 4.3 | 0.00 | 0.00 | 0.00 | 59 | 1022.5 |
| 20260831115003 | 74 | 152 | 0.9 | 3.5 | 0.00 | 0.00 | 0.00 | 56 | 1023.1 |
| 20260831114803 | 74 | 168 | 0.9 | 2.6 | 0.00 | 0.00 | 0.00 | 55 | 1022.5 |
| 20260831114543 | 73 | 340 | 0.9 | 2.6 | 0.00 | 0.00 | 0.00 | 100 | 1023.8 |
| 20260831114504 | 74 | 314 | 1.7 | 3.5 | 0.00 | 0.00 | 0.00 | 57 | 1023.2 |
| 20260831114303 | 74 | 327 | 0.9 | 2.6 | 0.00 | 0.00 | 0.00 | 57 | 1022.6 |
| 20260831114007 | 74 | 285 | 1.7 | 3.5 | 0.00 | 0.00 | 0.00 | 58 | 1023.3 |
| 20260831113804 | 74 | 259 | 0.9 | 2.6 | 0.00 | 0.00 | 0.00 | 58 | 1022.6 |
| 20260831113504 | 74 | 307 | 1.7 | 4.3 | 0.00 | 0.00 | 0.00 | 57 | 1023.3 |
| 20260831113304 | 74 | 43 | 1.7 | 4.3 | 0.00 | 0.00 | 0.00 | 57 | 1022.7 |
| 20260831113048 | 73 | 325 | 2.6 | 3.5 | 0.00 | 0.00 | 0.00 | 100 | 1023.8 |
| 20260831113003 | 74 | 38 | 2.6 | 4.3 | 0.00 | 0.00 | 0.00 | 56 | 1023.3 |
| 20260831112804 | 74 | 10 | 1.7 | 2.6 | 0.00 | 0.00 | 0.00 | 57 | 1022.7 |
| 20260831112503 | 74 | 24 | 0.9 | 3.5 | 0.00 | 0.00 | 0.00 | 57 | 1023.3 |
| 20260831112307 | 73 | 145 | 1.7 | 2.6 | 0.00 | 0.00 | 0.00 | 58 | 1022.7 |
| 20260831112010 | 73 | 80 | 1.7 | 3.5 | 0.00 | 0.00 | 0.00 | 59 | 1023.3 |
| 20260831111803 | 73 | 50 | 0.9 | 2.6 | 0.00 | 0.00 | 0.00 | 59 | 1022.7 |
| 20260831111545 | 72 | 61 | 0.9 | 2.6 | 0.00 | 0.00 | 0.00 | 100 | 1023.9 |
| 20260831111504 | 72 | 344 | 1.7 | 2.6 | 0.00 | 0.00 | 0.00 | 59 | 1023.3 |
| 20260831111304 | 72 | 34 | 1.7 | 2.6 | 0.00 | 0.00 | 0.00 | 60 | 1022.8 |
| 20260831111225 | 72 | 45 | 0.9 | 2.6 | 0.00 | 0.00 | 0.00 | 61 | 1023.3 |
| 20260831110805 | 72 | 85 | 1.7 | 2.6 | 0.00 | 0.00 | 0.00 | 60 | 1022.8 |
| 20260831110503 | 72 | 20 | 1.7 | 6.1 | 0.00 | 0.00 | 0.00 | 60 | 1023.3 |
| 20260831110303 | 72 | 31 | 0.9 | 2.6 | 0.00 | 0.00 | 0.00 | 61 | 1022.8 |
| 20260831110046 | 71 | 205 | 0.9 | 3.5 | 0.00 | 0.00 | 0.00 | 100 | 1024.0 |
| 20260831110002 | 72 | 223 | 1.7 | 6.1 | 0.00 | 0.00 | 0.00 | 59 | 1023.3 |
| 20260831105804 | 72 | 337 | 2.6 | 7.0 | 0.00 | 0.00 | 0.00 | 58 | 1022.8 |
| 20260831105504 | 72 | 45 | 1.7 | 4.3 | 0.00 | 0.00 | 0.00 | 62 | 1023.4 |
| 20260831105306 | 72 | 2 | 1.7 | 4.3 | 0.00 | 0.00 | 0.00 | 59 | 1022.8 |
| 20260831105002 | 72 | 21 | 1.7 | 4.3 | 0.00 | 0.00 | 0.00 | 62 | 1023.4 |
| 20260831104803 | 72 | 326 | 0.9 | 4.3 | 0.00 | 0.00 | 0.00 | 62 | 1022.8 |
| 20260831104726 | 72 | 223 | 1.7 | 3.5 | 0.00 | 0.00 | 0.00 | 61 | 1023.4 |
| 20260831104543 | 71 | 215 | 0.9 | 1.7 | 0.00 | 0.00 | 0.00 | 100 | 1023.9 |
| 20260831104001 | 71 | 66 | 1.7 | 3.5 | 0.00 | 0.00 | 0.00 | 62 | 1023.4 |
| 20260831103804 | 71 | 321 | 0.9 | 2.6 | 0.00 | 0.00 | 0.00 | 63 | 1022.8 |
| 20260831103503 | 71 | 327 | 1.7 | 3.5 | 0.00 | 0.00 | 0.00 | 62 | 1023.5 |
| 20260831103303 | 71 | 249 | 1.7 | 4.3 | 0.00 | 0.00 | 0.00 | 61 | 1022.8 |
| 20260831103044 | 71 | 293 | 0.9 | 3.5 | 0.00 | 0.00 | 0.00 | 100 | 1024.0 |
| 20260831103003 | 71 | 324 | 0.9 | 3.5 | 0.00 | 0.00 | 0.00 | 61 | 1023.5 |
| 20260831102503 | 71 | 124 | 0.9 | 2.6 | 0.00 | 0.00 | 0.00 | 63 | 1023.6 |
| 20260831102305 | 70 | 91 | 0.9 | 2.6 | 0.00 | 0.00 | 0.00 | 64 | 1022.9 |
| 20260831102003 | 70 | 1 | 1.7 | 2.6 | 0.00 | 0.00 | 0.00 | 64 | 1023.5 |
| 20260831101803 | 70 | 52 | 0.9 | 2.6 | 0.00 | 0.00 | 0.00 | 64 | 1023.0 |
| 20260831101551 | 69 | 178 | 0.9 | 2.6 | 0.00 | 0.00 | 0.00 | 100 | 1024.0 |
| 20260831101513 | 70 | 135 | 1.7 | 2.6 | 0.00 | 0.00 | 0.00 | 67 | 1023.5 |
| 20260831101304 | 70 | 84 | 0.9 | 2.6 | 0.00 | 0.00 | 0.00 | 67 | 1023.0 |
| 20260831101002 | 69 | 165 | 1.7 | 2.6 | 0.00 | 0.00 | 0.00 | 67 | 1023.5 |
| 20260831100804 | 69 | 169 | 0.9 | 1.7 | 0.00 | 0.00 | 0.00 | 67 | 1023.0 |
| 20260831100506 | 69 | 269 | 0.9 | 1.7 | 0.00 | 0.00 | 0.00 | 68 | 1023.5 |
| 20260831100223 | 68 | 178 | 0.9 | 2.6 | 0.00 | 0.00 | 0.00 | 72 | 1023.5 |
| 20260831100044 | 68 | 0 | 0.0 | 1.7 | 0.00 | 0.00 | 0.00 | 100 | 1024.0 |
| 20260831095804 | 68 | 89 | 0.9 | 1.7 | 0.00 | 0.00 | 0.00 | 72 | 1022.9 |
| 20260831095505 | 68 | 56 | 0.9 | 2.6 | 0.00 | 0.00 | 0.00 | 72 | 1023.5 |
| 20260831095306 | 68 | 53 | 0.9 | 1.7 | 0.00 | 0.00 | 0.00 | 73 | 1022.9 |
| 20260831095002 | 67 | 314 | 0.9 | 1.7 | 0.00 | 0.00 | 0.00 | 77 | 1023.5 |
| 20260831094804 | 67 | 17 | 0.0 | 1.7 | 0.00 | 0.00 | 0.00 | 77 | 1022.9 |
| 20260831094544 | 66 | 51 | 0.9 | 1.7 | 0.00 | 0.00 | 0.00 | 100 | 1024.0 |
| 20260831094505 | 67 | 45 | 0.9 | 1.7 | 0.00 | 0.00 | 0.00 | 78 | 1023.4 |
| 20260831094332 | 66 | 89 | 0.9 | 1.7 | 0.00 | 0.00 | 0.00 | 83 | 1023.4 |
| 20260831094325 | 67 | 178 | 0.9 | 1.7 | 0.00 | 0.00 | 0.00 | 80 | 1023.4 |
| 20260831093803 | 66 | 122 | 0.9 | 1.7 | 0.00 | 0.00 | 0.00 | 80 | 1022.8 |
| 20260831093303 | 66 | 198 | 0.9 | 1.7 | 0.00 | 0.00 | 0.00 | 84 | 1022.9 |
| 20260831093231 | 66 | 135 | 0.0 | 1.7 | 0.00 | 0.00 | 0.00 | 85 | 1023.4 |
| 20260831093049 | 66 | 0 | 0.0 | 0.9 | 0.00 | 0.00 | 0.00 | 100 | 1024.0 |
| 20260831092503 | 66 | 241 | 0.9 | 1.7 | 0.00 | 0.00 | 0.00 | 86 | 1023.5 |
| 20260831092306 | 66 | 203 | 0.9 | 1.7 | 0.00 | 0.00 | 0.00 | 86 | 1023.0 |
| 20260831092009 | 65 | 223 | 0.9 | 1.7 | 0.00 | 0.00 | 0.00 | 87 | 1023.4 |
| 20260831091805 | 65 | 312 | 0.9 | 1.7 | 0.00 | 0.00 | 0.00 | 86 | 1023.0 |
| 20260831091556 | 64 | 325 | 0.0 | 1.7 | 0.00 | 0.00 | 0.00 | 100 | 1024.0 |
| 20260831091504 | 65 | 20 | 0.9 | 1.7 | 0.00 | 0.00 | 0.00 | 86 | 1023.4 |
| 20260831091002 | 64 | 135 | 0.9 | 1.7 | 0.00 | 0.00 | 0.00 | 88 | 1023.5 |
| 20260831090803 | 64 | 161 | 0.9 | 1.7 | 0.00 | 0.00 | 0.00 | 88 | 1022.9 |
| 20260831090502 | 64 | 63 | 0.9 | 1.7 | 0.00 | 0.00 | 0.00 | 88 | 1023.5 |
| 20260831090304 | 64 | 187 | 0.9 | 1.7 | 0.00 | 0.00 | 0.00 | 88 | 1023.0 |
| 20260831090044 | 63 | 0 | 0.0 | 0.9 | 0.00 | 0.00 | 0.00 | 100 | 1024.0 |
| 20260831090002 | 64 | 269 | 0.9 | 1.7 | 0.00 | 0.00 | 0.00 | 88 | 1023.5 |
| 20260831085804 | 64 | 71 | 0.9 | 1.7 | 0.00 | 0.00 | 0.00 | 88 | 1023.0 |
| 20260831085502 | 64 | 269 | 0.0 | 1.7 | 0.00 | 0.00 | 0.00 | 88 | 1023.5 |
| 20260831085306 | 63 | 291 | 0.9 | 1.7 | 0.00 | 0.00 | 0.00 | 88 | 1023.0 |
| 20260831085002 | 63 | 178 | 0.9 | 1.7 | 0.00 | 0.00 | 0.00 | 89 | 1023.5 |
| 20260831084804 | 63 | 65 | 0.9 | 1.7 | 0.00 | 0.00 | 0.00 | 89 | 1022.9 |
| 20260831084543 | 63 | 0 | 0.9 | 1.7 | 0.00 | 0.00 | 0.00 | 100 | 1024.0 |
| 20260831084502 | 63 | 59 | 0.9 | 1.7 | 0.00 | 0.00 | 0.00 | 89 | 1023.5 |
| 20260831084303 | 63 | 43 | 0.9 | 1.7 | 0.00 | 0.00 | 0.00 | 89 | 1022.9 |
| 20260831084002 | 63 | 35 | 0.9 | 1.7 | 0.00 | 0.00 | 0.00 | 90 | 1023.4 |
| 20260831083803 | 63 | 64 | 0.9 | 1.7 | 0.00 | 0.00 | 0.00 | 90 | 1022.9 |
| 20260831083502 | 63 | 178 | 0.9 | 1.7 | 0.00 | 0.00 | 0.00 | 90 | 1023.5 |
| 20260831083303 | 63 | 52 | 0.9 | 1.7 | 0.00 | 0.00 | 0.00 | 90 | 1022.9 |
| 20260831083046 | 62 | 309 | 0.0 | 3.5 | 0.00 | 0.00 | 0.00 | 100 | 1024.0 |
| 20260831083003 | 63 | 178 | 0.9 | 2.6 | 0.00 | 0.00 | 0.00 | 90 | 1023.4 |
| 20260831082803 | 63 | 182 | 0.9 | 2.6 | 0.00 | 0.00 | 0.00 | 90 | 1022.9 |
| 20260831082503 | 62 | 1 | 0.9 | 2.6 | 0.00 | 0.00 | 0.00 | 90 | 1023.5 |
| 20260831082306 | 62 | 340 | 0.9 | 2.6 | 0.00 | 0.00 | 0.00 | 90 | 1023.0 |
| 20260831082002 | 62 | 28 | 0.9 | 1.7 | 0.00 | 0.00 | 0.00 | 91 | 1023.4 |
| 20260831081803 | 62 | 192 | 0.9 | 1.7 | 0.00 | 0.00 | 0.00 | 91 | 1022.8 |
| 20260831081544 | 62 | 309 | 0.0 | 0.9 | 0.00 | 0.00 | 0.00 | 100 | 1023.9 |
| 20260831081502 | 62 | 223 | 0.9 | 1.7 | 0.00 | 0.00 | 0.00 | 91 | 1023.3 |
| 20260831081229 | 62 | 223 | 0.9 | 1.7 | 0.00 | 0.00 | 0.00 | 91 | 1023.3 |
| 20260831080803 | 62 | 184 | 0.9 | 2.6 | 0.00 | 0.00 | 0.00 | 92 | 1022.7 |
| 20260831080502 | 61 | 145 | 0.0 | 1.7 | 0.00 | 0.00 | 0.00 | 92 | 1023.3 |
| 20260831080304 | 61 | 225 | 0.9 | 1.7 | 0.00 | 0.00 | 0.00 | 92 | 1022.8 |
| 20260831080110 | 61 | 64 | 0.9 | 1.7 | 0.00 | 0.00 | 0.00 | 100 | 1023.9 |
| 20260831080002 | 61 | 45 | 0.9 | 1.7 | 0.00 | 0.00 | 0.00 | 92 | 1023.4 |
| 20260831075804 | 61 | 147 | 0.9 | 2.6 | 0.00 | 0.00 | 0.00 | 92 | 1022.8 |
| 20260831075723 | 61 | 314 | 0.9 | 1.7 | 0.00 | 0.00 | 0.00 | 92 | 1023.3 |
| 20260831075306 | 61 | 146 | 0.9 | 1.7 | 0.00 | 0.00 | 0.00 | 92 | 1022.8 |
| 20260831075002 | 60 | 269 | 0.0 | 1.7 | 0.00 | 0.00 | 0.00 | 92 | 1023.3 |
| 20260831074804 | 60 | 240 | 0.9 | 2.6 | 0.00 | 0.00 | 0.00 | 92 | 1022.7 |
| 20260831074545 | 60 | 137 | 0.9 | 1.7 | 0.00 | 0.00 | 0.00 | 100 | 1023.9 |
| 20260831074508 | 60 | 142 | 1.7 | 1.7 | 0.00 | 0.00 | 0.00 | 92 | 1023.3 |
| 20260831074303 | 60 | 58 | 0.9 | 1.7 | 0.00 | 0.00 | 0.00 | 92 | 1022.7 |
| 20260831074003 | 60 | 336 | 0.9 | 1.7 | 0.00 | 0.00 | 0.00 | 92 | 1023.2 |
| 20260831073803 | 60 | 264 | 0.9 | 0.9 | 0.00 | 0.00 | 0.00 | 92 | 1022.5 |
| 20260831073501 | 60 | 152 | 0.9 | 0.9 | 0.00 | 0.00 | 0.00 | 92 | 1023.1 |
| 20260831073303 | 60 | 194 | 0.0 | 1.7 | 0.00 | 0.00 | 0.00 | 92 | 1022.6 |
| 20260831073110 | 59 | 0 | 0.0 | 1.7 | 0.00 | 0.00 | 0.00 | 100 | 1023.7 |
| 20260831073002 | 60 | 178 | 0.9 | 1.7 | 0.00 | 0.00 | 0.00 | 92 | 1023.2 |
| 20260831072804 | 60 | 340 | 0.9 | 0.9 | 0.00 | 0.00 | 0.00 | 92 | 1022.5 |
| 20260831072502 | 60 | 303 | 0.0 | 1.7 | 0.00 | 0.00 | 0.00 | 92 | 1023.1 |
| 20260831072306 | 60 | 158 | 0.9 | 1.7 | 0.00 | 0.00 | 0.00 | 92 | 1022.4 |
| 20260831072003 | 60 | 161 | 0.9 | 1.7 | 0.00 | 0.00 | 0.00 | 92 | 1023.0 |
| 20260831071721 | 60 | 314 | 0.9 | 1.7 | 0.00 | 0.00 | 0.00 | 92 | 1023.0 |
| 20260831071551 | 59 | 9 | 0.9 | 1.7 | 0.00 | 0.00 | 0.00 | 100 | 1023.6 |
| 20260831071305 | 59 | 348 | 0.9 | 1.7 | 0.00 | 0.00 | 0.00 | 92 | 1022.4 |
| 20260831071003 | 59 | 161 | 0.9 | 2.6 | 0.00 | 0.00 | 0.00 | 92 | 1022.9 |
| 20260831070803 | 59 | 163 | 0.9 | 2.6 | 0.00 | 0.00 | 0.00 | 91 | 1022.3 |
| 20260831070501 | 60 | 341 | 0.9 | 2.6 | 0.00 | 0.00 | 0.00 | 92 | 1022.9 |
| 20260831070048 | 65 | 221 | 0.9 | 1.7 | 0.00 | 0.00 | 0.00 | 100 | 1023.4 |
| 20260831070002 | 59 | 223 | 0.9 | 2.6 | 0.00 | 0.00 | 0.00 | 91 | 1022.9 |
| 20260831065803 | 59 | 180 | 0.9 | 2.6 | 0.00 | 0.00 | 0.00 | 91 | 1022.2 |
| 20260831065723 | 60 | 1 | 0.9 | 2.6 | 0.00 | 0.00 | 0.00 | 92 | 1022.7 |
| 20260831065002 | 60 | 314 | 1.7 | 2.6 | 0.00 | 0.00 | 0.00 | 92 | 1022.6 |
| 20260831064804 | 60 | 158 | 0.9 | 2.6 | 0.00 | 0.00 | 0.00 | 92 | 1022.1 |
| 20260831064546 | 65 | 178 | 0.0 | 0.9 | 0.00 | 0.00 | 0.00 | 100 | 1023.2 |
| 20260831064502 | 60 | 223 | 0.9 | 0.9 | 0.00 | 0.00 | 0.00 | 91 | 1022.6 |
| 20260831064304 | 60 | 162 | 0.9 | 1.7 | 0.00 | 0.00 | 0.00 | 91 | 1022.1 |
| 20260831064002 | 60 | 135 | 0.0 | 0.9 | 0.00 | 0.00 | 0.00 | 91 | 1022.5 |
| 20260831063804 | 60 | 0 | 0.0 | 0.9 | 0.00 | 0.00 | 0.00 | 91 | 1022.1 |
| 20260831063502 | 60 | 1 | 0.0 | 1.7 | 0.00 | 0.00 | 0.00 | 91 | 1022.5 |
| 20260831063303 | 60 | 207 | 0.0 | 1.7 | 0.00 | 0.00 | 0.00 | 91 | 1022.0 |
| 20260831063045 | 65 | 0 | 0.9 | 1.7 | 0.00 | 0.00 | 0.00 | 100 | 1023.1 |
| 20260831063002 | 60 | 223 | 0.9 | 1.7 | 0.00 | 0.00 | 0.00 | 91 | 1022.5 |
| 20260831062502 | 60 | 178 | 0.9 | 1.7 | 0.00 | 0.00 | 0.00 | 91 | 1022.4 |
| 20260831062306 | 60 | 160 | 0.9 | 1.7 | 0.00 | 0.00 | 0.00 | 91 | 1021.9 |
| 20260831062003 | 60 | 178 | 0.0 | 0.9 | 0.00 | 0.00 | 0.00 | 91 | 1022.4 |
| 20260831061804 | 60 | 223 | 0.9 | 0.9 | 0.00 | 0.00 | 0.00 | 91 | 1021.9 |
| 20260831061542 | 65 | 0 | 0.0 | 0.9 | 0.00 | 0.00 | 0.00 | 100 | 1023.1 |
| 20260831061503 | 60 | 223 | 0.0 | 1.7 | 0.00 | 0.00 | 0.00 | 91 | 1022.4 |
| 20260831061304 | 60 | 172 | 0.0 | 1.7 | 0.00 | 0.00 | 0.00 | 91 | 1021.9 |
| 20260831061002 | 60 | 157 | 0.9 | 3.5 | 0.00 | 0.00 | 0.00 | 91 | 1022.4 |
| 20260831060803 | 60 | 145 | 0.9 | 2.6 | 0.00 | 0.00 | 0.00 | 91 | 1021.8 |
| 20260831060503 | 60 | 137 | 0.9 | 3.5 | 0.00 | 0.00 | 0.00 | 91 | 1022.3 |
| 20260831060304 | 60 | 172 | 0.9 | 2.6 | 0.00 | 0.00 | 0.00 | 91 | 1021.9 |
| 20260831060223 | 60 | 223 | 0.9 | 1.7 | 0.00 | 0.00 | 0.00 | 91 | 1022.3 |
| 20260831060054 | 65 | 165 | 0.0 | 0.9 | 0.00 | 0.00 | 0.00 | 100 | 1023.1 |
| 20260831055804 | 60 | 165 | 0.0 | 0.9 | 0.00 | 0.00 | 0.00 | 91 | 1021.9 |
| 20260831055503 | 60 | 269 | 0.0 | 0.9 | 0.00 | 0.00 | 0.00 | 91 | 1022.4 |
| 20260831055306 | 60 | 232 | 0.0 | 1.7 | 0.00 | 0.00 | 0.00 | 91 | 1021.9 |
| 20260831055001 | 60 | 178 | 0.9 | 0.9 | 0.00 | 0.00 | 0.00 | 91 | 1022.4 |
| 20260831054550 | 65 | 0 | 0.0 | 0.9 | 0.00 | 0.00 | 0.00 | 100 | 1023.0 |
| 20260831054502 | 60 | 223 | 0.0 | 1.7 | 0.00 | 0.00 | 0.00 | 91 | 1022.3 |
| 20260831054304 | 60 | 219 | 0.0 | 0.9 | 0.00 | 0.00 | 0.00 | 91 | 1021.8 |
| 20260831054003 | 60 | 45 | 0.0 | 1.7 | 0.00 | 0.00 | 0.00 | 91 | 1022.3 |
| 20260831053804 | 60 | 225 | 0.9 | 1.7 | 0.00 | 0.00 | 0.00 | 91 | 1021.8 |
| 20260831053501 | 60 | 145 | 0.9 | 1.7 | 0.00 | 0.00 | 0.00 | 91 | 1022.2 |
| 20260831053304 | 60 | 155 | 0.9 | 1.7 | 0.00 | 0.00 | 0.00 | 91 | 1021.7 |
| 20260831053048 | 65 | 153 | 0.9 | 1.7 | 0.00 | 0.00 | 0.00 | 100 | 1022.9 |
| 20260831053003 | 60 | 178 | 0.9 | 0.9 | 0.00 | 0.00 | 0.00 | 91 | 1022.2 |
| 20260831052502 | 60 | 45 | 0.0 | 0.9 | 0.00 | 0.00 | 0.00 | 91 | 1022.2 |
| 20260831052306 | 60 | 147 | 0.9 | 1.7 | 0.00 | 0.00 | 0.00 | 91 | 1021.7 |
| 20260831052002 | 60 | 223 | 0.0 | 1.7 | 0.00 | 0.00 | 0.00 | 91 | 1022.3 |
| 20260831051803 | 60 | 209 | 0.0 | 1.7 | 0.00 | 0.00 | 0.00 | 91 | 1021.7 |
| 20260831051544 | 65 | 157 | 0.9 | 1.7 | 0.00 | 0.00 | 0.00 | 100 | 1022.9 |
| 20260831051504 | 60 | 178 | 0.9 | 1.7 | 0.00 | 0.00 | 0.00 | 91 | 1022.2 |
| 20260831051003 | 60 | 135 | 0.9 | 1.7 | 0.00 | 0.00 | 0.00 | 90 | 1022.2 |
| 20260831050803 | 60 | 167 | 0.9 | 0.9 | 0.00 | 0.00 | 0.00 | 90 | 1021.7 |
| 20260831050503 | 60 | 1 | 0.0 | 0.9 | 0.00 | 0.00 | 0.00 | 90 | 1022.3 |
| 20260831050303 | 60 | 253 | 0.0 | 0.9 | 0.00 | 0.00 | 0.00 | 90 | 1021.8 |
| 20260831050046 | 65 | 0 | 0.0 | 0.9 | 0.00 | 0.00 | 0.00 | 100 | 1022.8 |
| 20260831050002 | 60 | 45 | 0.0 | 0.9 | 0.00 | 0.00 | 0.00 | 90 | 1022.2 |
| 20260831045503 | 60 | 241 | 0.0 | 1.7 | 0.00 | 0.00 | 0.00 | 91 | 1022.1 |
| 20260831045306 | 60 | 126 | 0.0 | 0.9 | 0.00 | 0.00 | 0.00 | 91 | 1021.6 |
| 20260831045004 | 60 | 135 | 0.0 | 1.7 | 0.00 | 0.00 | 0.00 | 90 | 1022.1 |
| 20260831044554 | 65 | 171 | 0.9 | 1.7 | 0.00 | 0.00 | 0.00 | 100 | 1022.6 |
| 20260831044502 | 60 | 152 | 0.9 | 1.7 | 0.00 | 0.00 | 0.00 | 90 | 1022.1 |
| 20260831044304 | 60 | 153 | 0.9 | 1.7 | 0.00 | 0.00 | 0.00 | 90 | 1021.6 |
| 20260831044002 | 60 | 206 | 0.0 | 1.7 | 0.00 | 0.00 | 0.00 | 90 | 1022.1 |
| 20260831043804 | 60 | 264 | 0.0 | 1.7 | 0.00 | 0.00 | 0.00 | 90 | 1021.5 |
| 20260831043502 | 60 | 45 | 0.0 | 1.7 | 0.00 | 0.00 | 0.00 | 90 | 1022.1 |
| 20260831043304 | 60 | 159 | 0.9 | 1.7 | 0.00 | 0.00 | 0.00 | 90 | 1021.6 |
| 20260831043226 | 60 | 269 | 0.0 | 1.7 | 0.00 | 0.00 | 0.00 | 90 | 1022.1 |
| 20260831043047 | 65 | 0 | 0.0 | 0.9 | 0.00 | 0.00 | 0.00 | 100 | 1022.5 |
| 20260831042727 | 60 | 178 | 0.9 | 1.7 | 0.00 | 0.00 | 0.00 | 90 | 1022.0 |
| 20260831042306 | 60 | 162 | 0.0 | 2.6 | 0.00 | 0.00 | 0.00 | 90 | 1021.6 |
| 20260831042002 | 60 | 178 | 0.9 | 1.7 | 0.00 | 0.00 | 0.00 | 90 | 1022.0 |
| 20260831041804 | 60 | 156 | 0.9 | 1.7 | 0.00 | 0.00 | 0.00 | 90 | 1021.6 |
| 20260831041706 | 60 | 127 | 0.9 | 1.7 | 0.00 | 0.00 | 0.00 | 90 | 1022.1 |
| 20260831041654 | 60 | 178 | 0.9 | 1.7 | 0.00 | 0.00 | 0.00 | 90 | 1022.0 |
| 20260831041553 | 65 | 360 | 0.9 | 1.7 | 0.00 | 0.00 | 0.00 | 100 | 1022.6 |
| 20260831040804 | 60 | 163 | 0.9 | 1.7 | 0.00 | 0.00 | 0.00 | 90 | 1021.6 |
| 20260831040734 | 60 | 145 | 0.9 | 1.7 | 0.00 | 0.00 | 0.00 | 90 | 1022.0 |
| 20260831040303 | 60 | 140 | 0.9 | 1.7 | 0.00 | 0.00 | 0.00 | 90 | 1021.6 |
| 20260831040043 | 65 | 0 | 0.9 | 2.6 | 0.00 | 0.00 | 0.00 | 100 | 1022.6 |
| 20260831040002 | 60 | 168 | 1.7 | 2.6 | 0.00 | 0.00 | 0.00 | 90 | 1022.1 |
| 20260831035504 | 60 | 161 | 1.7 | 2.6 | 0.00 | 0.00 | 0.00 | 90 | 1022.1 |
| 20260831035306 | 60 | 154 | 0.9 | 2.6 | 0.00 | 0.00 | 0.00 | 90 | 1021.7 |
| 20260831035002 | 60 | 148 | 0.9 | 2.6 | 0.00 | 0.00 | 0.00 | 90 | 1022.1 |
| 20260831034805 | 60 | 163 | 0.9 | 1.7 | 0.00 | 0.00 | 0.00 | 90 | 1021.7 |
| 20260831034720 | 60 | 152 | 0.9 | 2.6 | 0.00 | 0.00 | 0.00 | 90 | 1022.2 |
| 20260831034549 | 65 | 111 | 0.9 | 1.7 | 0.00 | 0.00 | 0.00 | 100 | 1022.7 |
| 20260831034230 | 60 | 223 | 0.9 | 2.6 | 0.00 | 0.00 | 0.00 | 90 | 1022.2 |
| 20260831033502 | 60 | 161 | 0.9 | 1.7 | 0.00 | 0.00 | 0.00 | 89 | 1022.3 |
| 20260831033303 | 60 | 160 | 0.9 | 1.7 | 0.00 | 0.00 | 0.00 | 89 | 1021.8 |
| 20260831033043 | 65 | 0 | 0.9 | 1.7 | 0.00 | 0.00 | 0.00 | 100 | 1022.8 |
| 20260831033003 | 60 | 135 | 0.9 | 1.7 | 0.00 | 0.00 | 0.00 | 89 | 1022.2 |
| 20260831032504 | 60 | 89 | 0.9 | 1.7 | 0.00 | 0.00 | 0.00 | 89 | 1022.2 |
| 20260831032306 | 60 | 167 | 0.9 | 1.7 | 0.00 | 0.00 | 0.00 | 89 | 1021.8 |
| 20260831032002 | 60 | 145 | 1.7 | 1.7 | 0.00 | 0.00 | 0.00 | 89 | 1022.2 |
| 20260831031804 | 60 | 155 | 0.9 | 1.7 | 0.00 | 0.00 | 0.00 | 88 | 1021.7 |
| 20260831031544 | 65 | 0 | 0.0 | 0.9 | 0.00 | 0.00 | 0.00 | 100 | 1022.7 |
| 20260831031502 | 60 | 178 | 0.0 | 1.7 | 0.00 | 0.00 | 0.00 | 88 | 1022.2 |
| 20260831031457 | 60 | 178 | 0.0 | 1.7 | 0.00 | 0.00 | 0.00 | 88 | 1022.3 |
| 20260831031304 | 60 | 190 | 0.0 | 0.9 | 0.00 | 0.00 | 0.00 | 88 | 1021.7 |
| 20260831030804 | 61 | 172 | 0.9 | 1.7 | 0.00 | 0.00 | 0.00 | 88 | 1021.8 |
| 20260831030502 | 61 | 178 | 0.9 | 1.7 | 0.00 | 0.00 | 0.00 | 88 | 1022.2 |
| 20260831030304 | 61 | 156 | 0.9 | 1.7 | 0.00 | 0.00 | 0.00 | 88 | 1021.7 |
| 20260831030043 | 65 | 0 | 0.0 | 1.7 | 0.00 | 0.00 | 0.00 | 100 | 1022.7 |
| 20260831030002 | 61 | 135 | 0.9 | 1.7 | 0.00 | 0.00 | 0.00 | 88 | 1022.2 |
| 20260831025503 | 61 | 152 | 0.9 | 1.7 | 0.00 | 0.00 | 0.00 | 88 | 1022.2 |
| 20260831025306 | 61 | 148 | 0.9 | 2.6 | 0.00 | 0.00 | 0.00 | 88 | 1021.8 |
| 20260831025004 | 61 | 145 | 0.9 | 2.6 | 0.00 | 0.00 | 0.00 | 88 | 1022.2 |
| 20260831024804 | 61 | 164 | 0.9 | 2.6 | 0.00 | 0.00 | 0.00 | 88 | 1021.8 |
| 20260831024548 | 65 | 162 | 0.9 | 1.7 | 0.00 | 0.00 | 0.00 | 100 | 1022.7 |
| 20260831024502 | 61 | 165 | 1.7 | 2.6 | 0.00 | 0.00 | 0.00 | 88 | 1022.2 |
| 20260831024002 | 61 | 152 | 0.9 | 2.6 | 0.00 | 0.00 | 0.00 | 88 | 1022.1 |
| 20260831023804 | 61 | 146 | 0.9 | 2.6 | 0.00 | 0.00 | 0.00 | 88 | 1021.8 |
| 20260831023502 | 61 | 145 | 1.7 | 2.6 | 0.00 | 0.00 | 0.00 | 88 | 1022.2 |
| 20260831023304 | 61 | 148 | 0.9 | 2.6 | 0.00 | 0.00 | 0.00 | 88 | 1021.7 |
| 20260831023227 | 61 | 135 | 0.9 | 2.6 | 0.00 | 0.00 | 0.00 | 88 | 1022.2 |
| 20260831023045 | 65 | 162 | 0.9 | 2.6 | 0.00 | 0.00 | 0.00 | 100 | 1022.6 |
| 20260831022804 | 61 | 158 | 0.9 | 2.6 | 0.00 | 0.00 | 0.00 | 88 | 1021.8 |
| 20260831022505 | 61 | 142 | 0.9 | 2.6 | 0.00 | 0.00 | 0.00 | 88 | 1022.2 |
| 20260831022319 | 61 | 127 | 1.7 | 2.6 | 0.00 | 0.00 | 0.00 | 88 | 1022.1 |
| 20260831021547 | 65 | 146 | 1.7 | 2.6 | 0.00 | 0.00 | 0.00 | 100 | 1022.6 |
| 20260831021505 | 61 | 157 | 1.7 | 2.6 | 0.00 | 0.00 | 0.00 | 88 | 1022.1 |
| 20260831021303 | 61 | 153 | 1.7 | 2.6 | 0.00 | 0.00 | 0.00 | 88 | 1021.7 |
| 20260831021005 | 61 | 165 | 1.7 | 2.6 | 0.00 | 0.00 | 0.00 | 88 | 1022.2 |
| 20260831020804 | 61 | 159 | 0.9 | 2.6 | 0.00 | 0.00 | 0.00 | 88 | 1021.7 |
| 20260831020507 | 61 | 171 | 1.7 | 2.6 | 0.00 | 0.00 | 0.00 | 88 | 1022.1 |
| 20260831020304 | 61 | 165 | 0.9 | 2.6 | 0.00 | 0.00 | 0.00 | 88 | 1021.6 |
| 20260831020044 | 65 | 158 | 0.9 | 1.7 | 0.00 | 0.00 | 0.00 | 100 | 1022.5 |
| 20260831020002 | 61 | 157 | 1.7 | 2.6 | 0.00 | 0.00 | 0.00 | 88 | 1022.0 |
| 20260831015803 | 61 | 163 | 0.9 | 1.7 | 0.00 | 0.00 | 0.00 | 88 | 1021.6 |
| 20260831015512 | 61 | 178 | 0.9 | 1.7 | 0.00 | 0.00 | 0.00 | 88 | 1022.0 |
| 20260831015306 | 61 | 139 | 0.9 | 1.7 | 0.00 | 0.00 | 0.00 | 88 | 1021.6 |
| 20260831015002 | 61 | 45 | 0.9 | 1.7 | 0.00 | 0.00 | 0.00 | 88 | 1022.0 |
| 20260831014804 | 61 | 145 | 0.9 | 1.7 | 0.00 | 0.00 | 0.00 | 88 | 1021.6 |
| 20260831014549 | 65 | 144 | 0.0 | 1.7 | 0.00 | 0.00 | 0.00 | 100 | 1022.6 |
| 20260831014510 | 61 | 168 | 0.9 | 1.7 | 0.00 | 0.00 | 0.00 | 88 | 1022.0 |
| 20260831014303 | 61 | 154 | 0.9 | 2.6 | 0.00 | 0.00 | 0.00 | 88 | 1021.6 |
| 20260831014243 | 61 | 157 | 0.9 | 1.7 | 0.00 | 0.00 | 0.00 | 88 | 1022.0 |
| 20260831013804 | 61 | 148 | 0.9 | 1.7 | 0.00 | 0.00 | 0.00 | 88 | 1021.5 |
| 20260831013506 | 61 | 128 | 0.9 | 2.6 | 0.00 | 0.00 | 0.00 | 88 | 1022.0 |
| 20260831013304 | 61 | 163 | 0.9 | 2.6 | 0.00 | 0.00 | 0.00 | 88 | 1021.5 |
| 20260831013225 | 61 | 165 | 0.9 | 2.6 | 0.00 | 0.00 | 0.00 | 87 | 1022.0 |
| 20260831013053 | 65 | 178 | 0.9 | 1.7 | 0.00 | 0.00 | 0.00 | 100 | 1022.5 |
| 20260831013005 | 61 | 165 | 0.9 | 2.6 | 0.00 | 0.00 | 0.00 | 87 | 1022.0 |
| 20260831012804 | 61 | 158 | 0.9 | 2.6 | 0.00 | 0.00 | 0.00 | 87 | 1021.5 |
| 20260831012734 | 61 | 142 | 0.9 | 2.6 | 0.00 | 0.00 | 0.00 | 87 | 1021.9 |
| 20260831012306 | 61 | 169 | 0.9 | 2.6 | 0.00 | 0.00 | 0.00 | 87 | 1021.5 |
| 20260831012003 | 61 | 152 | 0.9 | 2.6 | 0.00 | 0.00 | 0.00 | 87 | 1022.0 |
| 20260831011547 | 65 | 149 | 0.9 | 1.7 | 0.00 | 0.00 | 0.00 | 100 | 1022.6 |
| 20260831011504 | 61 | 135 | 1.7 | 2.6 | 0.00 | 0.00 | 0.00 | 87 | 1022.1 |
| 20260831011304 | 61 | 164 | 0.9 | 2.6 | 0.00 | 0.00 | 0.00 | 87 | 1021.5 |
| 20260831011007 | 61 | 161 | 1.7 | 2.6 | 0.00 | 0.00 | 0.00 | 88 | 1021.9 |
| 20260831010803 | 61 | 146 | 1.7 | 2.6 | 0.00 | 0.00 | 0.00 | 88 | 1021.5 |
| 20260831010751 | 61 | 161 | 0.9 | 2.6 | 0.00 | 0.00 | 0.00 | 88 | 1022.0 |
| 20260831010304 | 61 | 160 | 1.7 | 4.3 | 0.00 | 0.00 | 0.00 | 88 | 1021.5 |
| 20260831010003 | 61 | 152 | 0.9 | 1.7 | 0.00 | 0.00 | 0.00 | 88 | 1022.0 |
| 20260831005803 | 61 | 145 | 0.9 | 1.7 | 0.00 | 0.00 | 0.00 | 88 | 1021.5 |
| 20260831005502 | 61 | 142 | 0.9 | 1.7 | 0.00 | 0.00 | 0.00 | 88 | 1022.0 |
| 20260831005306 | 61 | 152 | 0.9 | 2.6 | 0.00 | 0.00 | 0.00 | 88 | 1021.5 |
| 20260831005234 | 61 | 152 | 0.9 | 1.7 | 0.00 | 0.00 | 0.00 | 87 | 1022.0 |
| 20260831005005 | 61 | 152 | 0.9 | 1.7 | 0.00 | 0.00 | 0.00 | 87 | 1022.0 |
| 20260831004803 | 61 | 164 | 0.9 | 1.7 | 0.00 | 0.00 | 0.00 | 87 | 1021.7 |
| 20260831004544 | 65 | 165 | 0.0 | 1.7 | 0.00 | 0.00 | 0.00 | 100 | 1022.6 |
| 20260831004503 | 61 | 152 | 0.9 | 1.7 | 0.00 | 0.00 | 0.00 | 87 | 1022.1 |
| 20260831004303 | 61 | 160 | 0.9 | 1.7 | 0.00 | 0.00 | 0.00 | 87 | 1021.7 |
| 20260831004012 | 61 | 152 | 0.9 | 2.6 | 0.00 | 0.00 | 0.00 | 87 | 1022.2 |
| 20260831003804 | 61 | 160 | 0.9 | 1.7 | 0.00 | 0.00 | 0.00 | 87 | 1021.7 |
| 20260831003504 | 61 | 152 | 0.9 | 2.6 | 0.00 | 0.00 | 0.00 | 87 | 1022.2 |
| 20260831003303 | 61 | 141 | 0.9 | 2.6 | 0.00 | 0.00 | 0.00 | 87 | 1021.7 |
| 20260831003054 | 65 | 153 | 0.9 | 1.7 | 0.00 | 0.00 | 0.00 | 100 | 1022.8 |
| 20260831003003 | 61 | 165 | 0.9 | 1.7 | 0.00 | 0.00 | 0.00 | 87 | 1022.2 |
| 20260831002803 | 61 | 166 | 0.9 | 1.7 | 0.00 | 0.00 | 0.00 | 87 | 1021.7 |
| 20260831002502 | 61 | 171 | 0.9 | 1.7 | 0.00 | 0.00 | 0.00 | 87 | 1022.2 |
| 20260831002001 | 61 | 135 | 0.9 | 2.6 | 0.00 | 0.00 | 0.00 | 87 | 1022.3 |
| 20260831001804 | 61 | 162 | 0.9 | 2.6 | 0.00 | 0.00 | 0.00 | 87 | 1021.7 |
| 20260831001548 | 65 | 153 | 0.9 | 1.7 | 0.00 | 0.00 | 0.00 | 100 | 1022.8 |
| 20260831001503 | 61 | 145 | 0.9 | 2.6 | 0.00 | 0.00 | 0.00 | 86 | 1022.2 |
| 20260831001303 | 61 | 163 | 0.9 | 1.7 | 0.00 | 0.00 | 0.00 | 86 | 1021.8 |
| 20260831001002 | 61 | 165 | 0.9 | 2.6 | 0.00 | 0.00 | 0.00 | 86 | 1022.3 |
| 20260831000803 | 61 | 165 | 0.9 | 1.7 | 0.00 | 0.00 | 0.00 | 86 | 1021.8 |
| 20260831000503 | 61 | 165 | 0.9 | 2.6 | 0.00 | 0.00 | 0.00 | 86 | 1022.3 |
| 20260831000304 | 61 | 153 | 0.9 | 2.6 | 0.00 | 0.00 | 0.00 | 86 | 1021.8 |
| 20260831000045 | 65 | 165 | 0.9 | 1.7 | 0.00 | 0.00 | 0.00 | 100 | 1022.8 |
| 20260831000002 | 61 | 178 | 0.9 | 2.6 | 0.00 | 0.00 | 0.00 | 85 | 1022.3 |
| 20260830235803 | 61 | 170 | 0.9 | 2.6 | 0.00 | 0.00 | 0.00 | 85 | 1021.7 |
| 20260830235502 | 61 | 178 | 1.7 | 2.6 | 0.00 | 0.00 | 0.00 | 85 | 1022.3 |
| 20260830235306 | 61 | 148 | 1.7 | 4.3 | 0.00 | 0.00 | 0.00 | 86 | 1021.7 |
| 20260830235220 | 61 | 140 | 0.9 | 2.6 | 0.00 | 0.00 | 0.00 | 86 | 1022.3 |
| 20260830234804 | 61 | 164 | 0.9 | 2.6 | 0.00 | 0.00 | 0.00 | 86 | 1021.7 |
| 20260830234546 | 65 | 221 | 0.9 | 2.6 | 0.00 | 0.00 | 0.00 | 100 | 1022.9 |
| 20260830234504 | 61 | 152 | 0.9 | 3.5 | 0.00 | 0.00 | 0.00 | 86 | 1022.3 |
| 20260830234304 | 61 | 174 | 0.9 | 2.6 | 0.00 | 0.00 | 0.00 | 85 | 1021.7 |
| 20260830234002 | 61 | 206 | 0.9 | 3.5 | 0.00 | 0.00 | 0.00 | 85 | 1022.3 |
| 20260830233804 | 61 | 156 | 0.9 | 2.6 | 0.00 | 0.00 | 0.00 | 85 | 1021.7 |
| 20260830233504 | 61 | 190 | 0.9 | 1.7 | 0.00 | 0.00 | 0.00 | 85 | 1022.3 |
| 20260830233303 | 61 | 166 | 0.9 | 1.7 | 0.00 | 0.00 | 0.00 | 85 | 1021.7 |
| 20260830233044 | 65 | 178 | 0.9 | 1.7 | 0.00 | 0.00 | 0.00 | 100 | 1022.9 |
| 20260830233003 | 61 | 145 | 0.9 | 2.6 | 0.00 | 0.00 | 0.00 | 85 | 1022.4 |
| 20260830232503 | 61 | 152 | 0.9 | 2.6 | 0.00 | 0.00 | 0.00 | 84 | 1022.3 |
| 20260830232305 | 62 | 149 | 1.7 | 2.6 | 0.00 | 0.00 | 0.00 | 84 | 1021.7 |
| 20260830232003 | 62 | 165 | 1.7 | 2.6 | 0.00 | 0.00 | 0.00 | 84 | 1022.4 |
| 20260830231549 | 65 | 146 | 0.9 | 1.7 | 0.00 | 0.00 | 0.00 | 100 | 1022.9 |
| 20260830231504 | 62 | 45 | 0.9 | 1.7 | 0.00 | 0.00 | 0.00 | 84 | 1022.3 |
| 20260830231304 | 62 | 170 | 0.9 | 1.7 | 0.00 | 0.00 | 0.00 | 84 | 1021.9 |
| 20260830231229 | 62 | 161 | 0.9 | 1.7 | 0.00 | 0.00 | 0.00 | 84 | 1022.4 |
| 20260830230803 | 62 | 163 | 0.9 | 2.6 | 0.00 | 0.00 | 0.00 | 84 | 1021.9 |
| 20260830230504 | 62 | 168 | 0.9 | 1.7 | 0.00 | 0.00 | 0.00 | 84 | 1022.5 |
| 20260830230046 | 65 | 178 | 0.9 | 1.7 | 0.00 | 0.00 | 0.00 | 100 | 1023.0 |
| 20260830230002 | 62 | 152 | 0.9 | 1.7 | 0.00 | 0.00 | 0.00 | 84 | 1022.5 |
| 20260830225803 | 62 | 165 | 0.9 | 1.7 | 0.00 | 0.00 | 0.00 | 84 | 1021.9 |
| 20260830225504 | 62 | 148 | 0.9 | 1.7 | 0.00 | 0.00 | 0.00 | 84 | 1022.5 |
| 20260830225229 | 62 | 178 | 0.9 | 1.7 | 0.00 | 0.00 | 0.00 | 83 | 1022.5 |
| 20260830224803 | 62 | 173 | 0.9 | 1.7 | 0.00 | 0.00 | 0.00 | 83 | 1021.9 |
| 20260830224543 | 65 | 178 | 0.0 | 0.9 | 0.00 | 0.00 | 0.00 | 100 | 1023.1 |
| 20260830224502 | 62 | 178 | 0.9 | 1.7 | 0.00 | 0.00 | 0.00 | 82 | 1022.4 |
| 20260830224303 | 62 | 179 | 0.0 | 1.7 | 0.00 | 0.00 | 0.00 | 82 | 1021.9 |
| 20260830224002 | 62 | 314 | 0.0 | 1.7 | 0.00 | 0.00 | 0.00 | 82 | 1022.4 |
| 20260830223503 | 63 | 135 | 0.0 | 0.9 | 0.00 | 0.00 | 0.00 | 81 | 1022.5 |
| 20260830223303 | 63 | 144 | 0.0 | 0.9 | 0.00 | 0.01 | 0.00 | 81 | 1021.9 |
| 20260830223044 | 65 | 0 | 0.0 | 0.9 | 0.00 | 0.00 | 0.00 | 100 | 1023.0 |
| 20260830223003 | 63 | 178 | 0.0 | 0.9 | 0.00 | 0.00 | 0.00 | 81 | 1022.4 |
| 20260830222804 | 63 | 140 | 0.0 | 0.9 | 0.00 | 0.01 | 0.00 | 81 | 1021.9 |
| 20260830222728 | 63 | 223 | 0.0 | 0.9 | 0.00 | 0.00 | 0.00 | 81 | 1022.5 |
| 20260830222306 | 63 | 136 | 0.0 | 0.9 | 0.00 | 0.01 | 0.00 | 81 | 1021.9 |
| 20260830222003 | 63 | 178 | 0.0 | 0.9 | 0.00 | 0.00 | 0.00 | 81 | 1022.4 |
| 20260830221804 | 63 | 174 | 0.0 | 0.9 | 0.00 | 0.01 | 0.00 | 81 | 1021.8 |
| 20260830221547 | 65 | 196 | 0.0 | 1.7 | 0.00 | 0.00 | 0.00 | 100 | 1023.0 |
| 20260830221503 | 63 | 178 | 0.0 | 2.6 | 0.00 | 0.00 | 0.00 | 81 | 1022.4 |
| 20260830221453 | 63 | 171 | 0.9 | 2.6 | 0.00 | 0.00 | 0.00 | 80 | 1022.3 |
| 20260830221304 | 63 | 168 | 0.0 | 1.7 | 0.00 | 0.01 | 0.00 | 81 | 1021.8 |
| 20260830220502 | 63 | 178 | 0.9 | 1.7 | 0.00 | 0.00 | 0.00 | 80 | 1022.3 |
| 20260830220304 | 63 | 164 | 0.9 | 1.7 | 0.00 | 0.01 | 0.00 | 80 | 1021.7 |
| 20260830220046 | 65 | 0 | 0.0 | 0.9 | 0.00 | 0.00 | 0.00 | 100 | 1022.8 |
| 20260830220002 | 63 | 178 | 0.0 | 1.7 | 0.00 | 0.00 | 0.00 | 80 | 1022.4 |
| 20260830215503 | 64 | 178 | 0.0 | 1.7 | 0.00 | 0.00 | 0.00 | 79 | 1022.4 |
| 20260830215305 | 64 | 175 | 0.0 | 1.7 | 0.00 | 0.01 | 0.01 | 79 | 1021.8 |
| 20260830215224 | 64 | 145 | 0.9 | 1.7 | 0.00 | 0.00 | 0.00 | 79 | 1022.3 |
| 20260830214804 | 64 | 179 | 0.0 | 0.9 | 0.00 | 0.01 | 0.01 | 79 | 1021.7 |
| 20260830214543 | 65 | 0 | 0.0 | 0.9 | 0.00 | 0.00 | 0.00 | 100 | 1022.8 |
| 20260830214502 | 64 | 152 | 0.0 | 0.9 | 0.00 | 0.00 | 0.00 | 78 | 1022.2 |
| 20260830214003 | 64 | 178 | 0.9 | 0.9 | 0.00 | 0.00 | 0.00 | 78 | 1022.3 |
| 20260830213804 | 64 | 244 | 0.0 | 0.9 | 0.00 | 0.01 | 0.01 | 78 | 1021.7 |
| 20260830213505 | 64 | 206 | 0.0 | 0.9 | 0.00 | 0.00 | 0.00 | 78 | 1022.3 |
| 20260830213304 | 64 | 25 | 0.0 | 0.9 | 0.00 | 0.01 | 0.01 | 77 | 1021.7 |
| 20260830213043 | 65 | 0 | 0.0 | 0.9 | 0.00 | 0.00 | 0.00 | 100 | 1022.9 |
| 20260830213002 | 64 | 223 | 0.0 | 0.9 | 0.00 | 0.00 | 0.00 | 77 | 1022.2 |
| 20260830212804 | 64 | 243 | 0.0 | 0.9 | 0.00 | 0.01 | 0.01 | 77 | 1021.6 |
| 20260830212502 | 64 | 45 | 0.0 | 1.7 | 0.00 | 0.00 | 0.00 | 77 | 1022.2 |
| 20260830212003 | 65 | 178 | 0.0 | 1.7 | 0.00 | 0.00 | 0.00 | 77 | 1022.1 |
| 20260830211804 | 65 | 212 | 0.9 | 1.7 | 0.00 | 0.01 | 0.01 | 77 | 1021.6 |
| 20260830211542 | 65 | 0 | 0.0 | 0.9 | 0.00 | 0.00 | 0.00 | 100 | 1022.8 |
| 20260830211503 | 65 | 223 | 0.0 | 0.9 | 0.00 | 0.00 | 0.00 | 77 | 1022.2 |
| 20260830211303 | 65 | 264 | 0.0 | 0.9 | 0.00 | 0.01 | 0.01 | 77 | 1021.6 |
| 20260830211001 | 65 | 269 | 0.0 | 0.9 | 0.00 | 0.00 | 0.00 | 77 | 1022.2 |
| 20260830210804 | 65 | 153 | 0.0 | 0.9 | 0.00 | 0.01 | 0.01 | 77 | 1021.5 |
| 20260830210502 | 65 | 178 | 0.0 | 1.7 | 0.00 | 0.00 | 0.00 | 77 | 1022.1 |
| 20260830210303 | 65 | 168 | 0.0 | 0.9 | 0.00 | 0.01 | 0.01 | 77 | 1021.4 |
| 20260830210044 | 65 | 0 | 0.0 | 0.9 | 0.00 | 0.00 | 0.00 | 100 | 1022.6 |
| 20260830210003 | 65 | 269 | 0.9 | 1.7 | 0.00 | 0.00 | 0.00 | 77 | 1022.0 |
| 20260830205503 | 65 | 178 | 0.0 | 2.6 | 0.00 | 0.00 | 0.00 | 77 | 1022.0 |
| 20260830205305 | 65 | 148 | 0.0 | 0.9 | 0.00 | 0.01 | 0.01 | 77 | 1021.4 |
| 20260830205003 | 65 | 314 | 0.9 | 2.6 | 0.00 | 0.00 | 0.00 | 77 | 1022.0 |
| 20260830204804 | 65 | 164 | 0.9 | 2.6 | 0.00 | 0.01 | 0.01 | 77 | 1021.3 |
| 20260830204548 | 65 | 93 | 0.9 | 1.7 | 0.00 | 0.00 | 0.00 | 100 | 1022.5 |
| 20260830204501 | 65 | 145 | 0.9 | 1.7 | 0.00 | 0.00 | 0.00 | 78 | 1021.9 |
| 20260830204304 | 65 | 173 | 0.9 | 1.7 | 0.00 | 0.01 | 0.01 | 78 | 1021.2 |
| 20260830204224 | 65 | 152 | 0.0 | 1.7 | 0.00 | 0.00 | 0.00 | 78 | 1021.9 |
| 20260830203803 | 65 | 164 | 0.9 | 1.7 | 0.00 | 0.01 | 0.01 | 78 | 1021.3 |
| 20260830203723 | 65 | 145 | 0.9 | 1.7 | 0.00 | 0.00 | 0.00 | 79 | 1021.8 |
| 20260830203304 | 65 | 155 | 0.0 | 0.9 | 0.00 | 0.01 | 0.01 | 79 | 1021.2 |
| 20260830203222 | 65 | 45 | 0.9 | 0.9 | 0.00 | 0.00 | 0.00 | 79 | 1021.7 |
| 20260830203045 | 65 | 0 | 0.0 | 0.9 | 0.00 | 0.00 | 0.00 | 100 | 1022.4 |
| 20260830202502 | 65 | 152 | 0.0 | 0.9 | 0.00 | 0.00 | 0.00 | 78 | 1021.7 |
| 20260830202002 | 65 | 178 | 0.0 | 0.9 | 0.00 | 0.00 | 0.00 | 78 | 1021.6 |
| 20260830201804 | 65 | 159 | 0.0 | 0.9 | 0.00 | 0.01 | 0.01 | 78 | 1021.0 |
| 20260830201544 | 65 | 146 | 0.9 | 0.9 | 0.00 | 0.00 | 0.00 | 100 | 1022.1 |
| 20260830201503 | 65 | 152 | 0.9 | 1.7 | 0.00 | 0.00 | 0.00 | 78 | 1021.5 |
| 20260830201004 | 65 | 152 | 0.0 | 1.7 | 0.00 | 0.00 | 0.00 | 78 | 1021.5 |
| 20260830200503 | 66 | 145 | 0.9 | 0.9 | 0.00 | 0.00 | 0.00 | 77 | 1021.4 |
| 20260830200304 | 66 | 134 | 0.9 | 0.9 | 0.00 | 0.01 | 0.01 | 77 | 1020.8 |
| 20260830200043 | 65 | 120 | 0.0 | 0.9 | 0.00 | 0.00 | 0.00 | 100 | 1022.0 |
| 20260830200001 | 66 | 135 | 0.9 | 0.9 | 0.00 | 0.00 | 0.00 | 77 | 1021.3 |
| 20260830195503 | 66 | 178 | 0.0 | 0.9 | 0.00 | 0.00 | 0.00 | 76 | 1021.3 |
| 20260830195305 | 66 | 152 | 0.0 | 0.9 | 0.00 | 0.01 | 0.01 | 76 | 1020.7 |
| 20260830195222 | 67 | 178 | 0.0 | 0.9 | 0.00 | 0.00 | 0.00 | 76 | 1021.1 |
| 20260830194803 | 67 | 167 | 0.0 | 0.9 | 0.00 | 0.01 | 0.01 | 75 | 1020.5 |
| 20260830194601 | 66 | 0 | 0.0 | 0.9 | 0.00 | 0.00 | 0.00 | 100 | 1021.7 |
| 20260830194502 | 67 | 145 | 0.9 | 0.9 | 0.00 | 0.00 | 0.00 | 75 | 1021.0 |
| 20260830194304 | 67 | 310 | 0.0 | 1.7 | 0.00 | 0.01 | 0.01 | 75 | 1020.4 |
| 20260830194003 | 67 | 314 | 0.0 | 0.9 | 0.00 | 0.00 | 0.00 | 75 | 1021.0 |
| 20260830193803 | 67 | 212 | 0.0 | 0.9 | 0.00 | 0.01 | 0.01 | 75 | 1020.3 |
| 20260830193502 | 67 | 178 | 0.0 | 1.7 | 0.00 | 0.00 | 0.00 | 75 | 1020.9 |
| 20260830193304 | 68 | 215 | 0.0 | 0.9 | 0.00 | 0.01 | 0.01 | 75 | 1020.3 |
| 20260830193044 | 67 | 0 | 0.9 | 0.9 | 0.00 | 0.00 | 0.00 | 100 | 1021.5 |
| 20260830193002 | 68 | 45 | 0.0 | 1.7 | 0.00 | 0.00 | 0.00 | 75 | 1020.9 |
| 20260830192804 | 68 | 114 | 0.0 | 1.7 | 0.00 | 0.01 | 0.01 | 75 | 1020.2 |
| 20260830192732 | 68 | 269 | 0.0 | 0.9 | 0.00 | 0.00 | 0.00 | 75 | 1020.8 |
| 20260830192452 | 68 | 178 | 0.0 | 1.7 | 0.00 | 0.00 | 0.00 | 75 | 1020.7 |
| 20260830192305 | 68 | 320 | 0.0 | 0.9 | 0.00 | 0.01 | 0.01 | 75 | 1020.1 |
| 20260830191803 | 68 | 206 | 0.0 | 1.7 | 0.00 | 0.01 | 0.01 | 75 | 1020.1 |
| 20260830191543 | 68 | 0 | 0.0 | 0.9 | 0.00 | 0.00 | 0.00 | 100 | 1021.4 |
| 20260830191502 | 68 | 45 | 0.9 | 1.7 | 0.00 | 0.00 | 0.00 | 75 | 1020.6 |
| 20260830191304 | 68 | 213 | 0.0 | 1.7 | 0.00 | 0.01 | 0.01 | 75 | 1020.1 |
| 20260830191228 | 68 | 1 | 0.9 | 2.6 | 0.00 | 0.00 | 0.00 | 74 | 1020.7 |
| 20260830190803 | 69 | 265 | 0.9 | 2.6 | 0.00 | 0.01 | 0.01 | 74 | 1020.0 |
| 20260830190502 | 69 | 269 | 0.9 | 3.5 | 0.00 | 0.00 | 0.00 | 74 | 1020.5 |
| 20260830190304 | 69 | 321 | 0.9 | 2.6 | 0.00 | 0.01 | 0.01 | 74 | 1019.9 |
| 20260830190043 | 68 | 325 | 0.9 | 1.7 | 0.00 | 0.00 | 0.00 | 100 | 1021.2 |
| 20260830190002 | 69 | 283 | 1.7 | 3.5 | 0.00 | 0.00 | 0.00 | 74 | 1020.5 |
| 20260830185804 | 69 | 4 | 0.9 | 2.6 | 0.00 | 0.01 | 0.01 | 74 | 1019.9 |
| 20260830185503 | 69 | 320 | 0.9 | 2.6 | 0.00 | 0.00 | 0.00 | 74 | 1020.5 |
| 20260830185306 | 69 | 319 | 0.9 | 2.6 | 0.00 | 0.01 | 0.01 | 74 | 1019.9 |
| 20260830185003 | 69 | 16 | 0.9 | 5.2 | 0.00 | 0.00 | 0.00 | 73 | 1020.5 |
| 20260830184803 | 69 | 318 | 0.9 | 2.6 | 0.00 | 0.01 | 0.01 | 73 | 1019.8 |
| 20260830184727 | 69 | 343 | 1.7 | 5.2 | 0.00 | 0.00 | 0.00 | 73 | 1020.4 |
| 20260830184547 | 69 | 313 | 2.6 | 7.0 | 0.00 | 0.00 | 0.00 | 100 | 1021.1 |
| 20260830184304 | 69 | 335 | 1.7 | 7.0 | 0.00 | 0.01 | 0.01 | 73 | 1019.8 |
| 20260830184003 | 69 | 296 | 0.9 | 4.3 | 0.00 | 0.00 | 0.00 | 73 | 1020.4 |
| 20260830183804 | 70 | 293 | 1.7 | 2.6 | 0.00 | 0.01 | 0.01 | 73 | 1019.7 |
| 20260830183501 | 70 | 314 | 0.9 | 4.3 | 0.00 | 0.00 | 0.00 | 74 | 1020.4 |
| 20260830183304 | 70 | 305 | 1.7 | 4.3 | 0.00 | 0.01 | 0.01 | 73 | 1019.8 |
| 20260830183046 | 69 | 0 | 0.0 | 7.8 | 0.00 | 0.00 | 0.00 | 100 | 1021.0 |
| 20260830183002 | 70 | 290 | 1.7 | 7.8 | 0.00 | 0.00 | 0.00 | 73 | 1020.4 |
| 20260830182804 | 70 | 302 | 1.7 | 4.3 | 0.00 | 0.01 | 0.01 | 73 | 1019.7 |
| 20260830182500 | 70 | 323 | 2.6 | 7.8 | 0.00 | 0.00 | 0.00 | 72 | 1020.3 |
| 20260830182306 | 70 | 322 | 1.7 | 7.8 | 0.00 | 0.01 | 0.01 | 73 | 1019.7 |
| 20260830182212 | 70 | 197 | 0.9 | 6.1 | 0.00 | 0.00 | 0.00 | 73 | 1020.2 |
| 20260830181803 | 70 | 282 | 1.7 | 7.0 | 0.00 | 0.01 | 0.01 | 73 | 1019.6 |
| 20260830181542 | 70 | 230 | 0.9 | 4.3 | 0.00 | 0.00 | 0.00 | 100 | 1020.9 |
| 20260830181445 | 71 | 89 | 2.6 | 6.1 | 0.00 | 0.00 | 0.00 | 72 | 1020.2 |
| 20260830181304 | 71 | 317 | 1.7 | 5.2 | 0.00 | 0.01 | 0.01 | 71 | 1019.6 |
| 20260830181202 | 71 | 336 | 1.7 | 6.1 | 0.00 | 0.00 | 0.00 | 71 | 1020.1 |
| 20260830180431 | 71 | 310 | 2.6 | 6.1 | 0.00 | 0.00 | 0.00 | 70 | 1020.1 |
| 20260830180304 | 71 | 318 | 3.5 | 7.0 | 0.00 | 0.01 | 0.01 | 70 | 1019.5 |
| 20260830180042 | 71 | 303 | 1.7 | 5.2 | 0.00 | 0.00 | 0.00 | 100 | 1020.8 |
| 20260830175931 | 72 | 290 | 2.6 | 6.1 | 0.00 | 0.00 | 0.00 | 69 | 1020.1 |
| 20260830175431 | 72 | 347 | 2.6 | 6.1 | 0.00 | 0.00 | 0.00 | 69 | 1020.1 |
| 20260830175416 | 72 | 326 | 0.9 | 7.8 | 0.00 | 0.00 | 0.00 | 69 | 1020.1 |
| 20260830175306 | 72 | 303 | 2.6 | 5.2 | 0.00 | 0.01 | 0.01 | 69 | 1019.5 |
| 20260830174804 | 72 | 298 | 2.6 | 7.8 | 0.00 | 0.01 | 0.01 | 69 | 1019.4 |
| 20260830174606 | 72 | 342 | 4.3 | 7.0 | 0.00 | 0.00 | 0.00 | 100 | 1020.7 |
| 20260830174437 | 72 | 351 | 3.5 | 7.8 | 0.00 | 0.00 | 0.00 | 69 | 1020.0 |
| 20260830174304 | 72 | 299 | 1.7 | 7.0 | 0.00 | 0.01 | 0.01 | 69 | 1019.4 |
| 20260830173932 | 72 | 348 | 2.6 | 6.1 | 0.00 | 0.00 | 0.00 | 69 | 1020.1 |
| 20260830173804 | 72 | 329 | 2.6 | 8.7 | 0.00 | 0.01 | 0.01 | 68 | 1019.3 |
| 20260830173407 | 73 | 329 | 3.5 | 6.1 | 0.00 | 0.00 | 0.00 | 69 | 1019.9 |
| 20260830173304 | 73 | 317 | 2.6 | 6.1 | 0.00 | 0.01 | 0.01 | 68 | 1019.3 |
| 20260830173043 | 72 | 317 | 1.7 | 6.1 | 0.00 | 0.00 | 0.00 | 100 | 1020.7 |
| 20260830172905 | 73 | 334 | 1.7 | 6.1 | 0.00 | 0.00 | 0.00 | 69 | 1019.9 |
| 20260830172804 | 73 | 317 | 2.6 | 7.0 | 0.00 | 0.01 | 0.01 | 68 | 1019.3 |
| 20260830172434 | 73 | 313 | 3.5 | 7.8 | 0.00 | 0.00 | 0.00 | 68 | 1019.9 |
| 20260830172306 | 73 | 323 | 3.5 | 7.0 | 0.00 | 0.01 | 0.01 | 68 | 1019.3 |
| 20260830171904 | 73 | 303 | 3.5 | 7.8 | 0.00 | 0.00 | 0.00 | 67 | 1019.8 |
| 20260830171804 | 73 | 323 | 2.6 | 7.8 | 0.00 | 0.01 | 0.01 | 67 | 1019.2 |
| 20260830171631 | 73 | 45 | 1.7 | 5.2 | 0.00 | 0.00 | 0.00 | 67 | 1019.8 |
| 20260830171545 | 73 | 34 | 0.9 | 7.0 | 0.00 | 0.00 | 0.00 | 100 | 1020.5 |
| 20260830171304 | 73 | 335 | 1.7 | 6.1 | 0.00 | 0.01 | 0.01 | 67 | 1019.1 |
| 20260830170904 | 73 | 327 | 2.6 | 5.2 | 0.00 | 0.00 | 0.00 | 67 | 1019.7 |
| 20260830170804 | 73 | 299 | 2.6 | 7.0 | 0.00 | 0.01 | 0.01 | 67 | 1019.1 |
| 20260830170407 | 73 | 296 | 1.7 | 7.8 | 0.00 | 0.00 | 0.00 | 67 | 1019.7 |
| 20260830170304 | 73 | 316 | 2.6 | 7.0 | 0.00 | 0.01 | 0.01 | 67 | 1019.1 |
| 20260830170125 | 73 | 351 | 2.6 | 7.8 | 0.00 | 0.00 | 0.00 | 67 | 1019.7 |
| 20260830170047 | 73 | 306 | 2.6 | 5.2 | 0.00 | 0.00 | 0.00 | 100 | 1020.4 |
| 20260830165804 | 73 | 315 | 2.6 | 8.7 | 0.00 | 0.01 | 0.01 | 67 | 1019.0 |
| 20260830165631 | 73 | 347 | 3.5 | 6.1 | 0.00 | 0.00 | 0.00 | 67 | 1019.7 |
| 20260830165306 | 73 | 271 | 1.7 | 7.8 | 0.00 | 0.01 | 0.01 | 68 | 1019.0 |
| 20260830164907 | 73 | 302 | 3.5 | 7.8 | 0.00 | 0.00 | 0.00 | 67 | 1019.6 |
| 20260830164903 | 73 | 216 | 3.5 | 7.8 | 0.00 | 0.00 | 0.00 | 67 | 1019.6 |
| 20260830164804 | 73 | 314 | 2.6 | 7.8 | 0.00 | 0.01 | 0.01 | 67 | 1019.0 |
| 20260830164544 | 73 | 254 | 1.7 | 4.3 | 0.00 | 0.00 | 0.00 | 100 | 1020.3 |
| 20260830164304 | 73 | 317 | 2.6 | 7.8 | 0.00 | 0.01 | 0.01 | 67 | 1019.0 |
| 20260830163903 | 73 | 320 | 2.6 | 6.1 | 0.00 | 0.00 | 0.00 | 66 | 1019.6 |
| 20260830163405 | 74 | 351 | 2.6 | 7.8 | 0.00 | 0.00 | 0.00 | 67 | 1019.6 |
| 20260830163304 | 74 | 331 | 2.6 | 7.8 | 0.00 | 0.01 | 0.01 | 66 | 1019.0 |
| 20260830163054 | 74 | 22 | 4.3 | 7.8 | 0.00 | 0.00 | 0.00 | 100 | 1020.3 |
| 20260830162904 | 74 | 344 | 3.5 | 7.8 | 0.00 | 0.00 | 0.00 | 66 | 1019.6 |
| 20260830162405 | 74 | 286 | 1.7 | 6.1 | 0.00 | 0.00 | 0.00 | 66 | 1019.6 |
| 20260830162306 | 74 | 305 | 2.6 | 7.0 | 0.00 | 0.01 | 0.01 | 66 | 1018.9 |
| 20260830161903 | 74 | 1 | 1.7 | 6.1 | 0.00 | 0.00 | 0.00 | 65 | 1019.5 |
| 20260830161804 | 74 | 354 | 2.6 | 7.8 | 0.00 | 0.01 | 0.01 | 65 | 1018.9 |
| 20260830161558 | 74 | 15 | 2.6 | 5.2 | 0.00 | 0.00 | 0.00 | 100 | 1020.2 |
| 20260830161404 | 74 | 336 | 1.7 | 6.1 | 0.00 | 0.00 | 0.00 | 66 | 1019.5 |
| 20260830161303 | 74 | 326 | 1.7 | 4.3 | 0.00 | 0.01 | 0.01 | 66 | 1018.8 |
| 20260830161125 | 74 | 250 | 2.6 | 4.3 | 0.00 | 0.00 | 0.00 | 66 | 1019.5 |
| 20260830160804 | 74 | 326 | 3.5 | 7.8 | 0.00 | 0.01 | 0.01 | 66 | 1018.8 |